Погода в Новом Селе

Украина / Хмельницкая область     49°10′36″N   26°47′40″E
темп.,
°C
ветер,
м/с
пор.,
м/с
влажн.,
%
обл.,
%
осадки,
мм/ч
давл.,
гПа
погр.,
м
5 августа, чт
чт500:00+16вюв239196 1.8 101529
03:00+16вюв2289100 1.8 101413
06:00+16ю2289100 0.0 101317
09:00+20ююв3477100 0.0 1012211
12:00+26ююв55505 0.0 10111176
15:00+28ююв554535 0.0 10081812
18:00+27юв67525 0.0 10061488
21:00+20ююз61291100 5.4 1004468
6 августа, пт
пт600:00+18юв4108996 10.8 1004202
03:00+16ю499416 10.9 1003195
06:00+16юз249374 0.0 100264
09:00+21з477599 0.0 1003560
12:00+23зсз4558100 0.0 10031262
15:00+23зсз556568 0.8 10041017
18:00+18сз4986100 2.7 1005378
21:00+16зсз41089100 3.1 1007411
7 августа, сб
сб700:00+14з39962 0.0 1008310
03:00+12зсз410964 0.0 1009364
06:00+11зсз35960 0.0 1011114
09:00+16зсз35750 0.0 1012397
12:00+21зсз45520 0.0 10121352
15:00+24сз45458 0.0 10121746
18:00+24сз344827 0.0 10121778
21:00+18ссв11695 0.0 101411
8 августа, вс
вс800:00+17ююв22740 0.0 101512
03:00+16ю23795 0.0 101523
06:00+15ююв34825 0.0 101647
09:00+21ююв466530 0.0 1016318
12:00+25ю67513 0.0 10161037
15:00+27ю66454 0.0 10151258
18:00+27ююв56505 0.0 1015927
21:00+20ююв49712 0.0 1016147
9 августа, пн
пн900:00+19юв4116931 0.0 1016187
03:00+18ююв412709 0.0 1016209
06:00+18ююв413670 0.0 1016274
09:00+22юв2461100 0.0 1016285
12:00+26ююв454986 0.0 1016688
15:00+27зюз224990 0.0 10171151
18:00+27ссз4353100 0.0 10171290
21:00+19сз399459 1.8 1019204